Wind_Speed
7 9 8 10 18 22 24 24 23 22 25 35 39 36 29 32 40 44 44 43 43 44 44 43 43 44 45 46 46 45 45 45 45 44 43 43 43 43 43 43 44 44 44 45
3 6 12 15 16 16 17 20 23 24 25 32 34 32 27 28 35 39 39 39 40 41 41 41 40 41 42 43 44 43 43 43 43 44 44 44 44 44 44 45 45 45 46 47
6 11 12 10 12 13 13 13 17 21 25 27 27 26 23 25 32 36 38 37 36 37 37 38 38 39 40 41 41 42 42 42 43 43 43 44 44 45 45 46 46 47 48 48
10 15 15 13 13 15 14 17 23 24 25 25 24 26 23 22 31 36 39 38 36 35 36 37 37 38 39 40 40 41 41 42 43 44 44 45 45 46 46 47 48 49 49 49
9 14 15 13 14 19 19 22 24 24 24 24 21 24 21 19 25 32 36 37 36 36 35 36 37 37 38 39 40 41 41 42 43 44 46 46 47 47 48 49 50 51 51 51
11 14 15 14 16 18 19 20 20 18 18 19 17 20 18 19 25 30 36 38 39 38 36 35 35 36 36 37 38 39 40 41 42 43 45 46 47 48 49 50 51 51 52 52
9 9 11 14 12 14 16 17 15 11 11 16 17 19 17 23 28 31 35 39 40 39 37 36 35 34 34 35 35 36 37 38 39 41 43 45 46 48 48 49 50 52 52 52
8 7 9 13 13 14 14 14 13 15 15 15 17 20 22 29 31 32 33 35 37 38 38 37 36 36 35 35 35 36 36 37 38 40 42 43 45 47 48 49 50 51 52 53
8 9 10 12 12 12 13 12 13 17 17 16 14 15 22 28 31 33 34 36 38 39 39 38 38 38 37 37 37 37 37 38 39 40 41 43 44 46 47 48 50 51 52 54
9 10 8 11 13 13 14 15 16 18 20 20 17 16 22 30 34 38 40 40 40 40 41 41 40 39 39 39 39 39 39 40 40 41 41 42 43 45 46 47 48 50 51 51
10 11 9 11 13 14 16 17 19 21 23 24 25 21 21 29 35 38 40 41 41 41 40 40 40 40 40 40 40 40 40 41 41 41 41 42 43 44 44 45 46 46 46 46
12 12 10 10 11 14 15 18 21 23 23 24 27 23 21 28 33 37 39 40 40 41 41 41 40 40 40 40 40 40 40 40 40 40 41 41 42 42 41 41 40 40 40 39
10 11 10 8 11 14 17 19 22 25 26 26 28 26 24 31 35 38 40 40 40 41 41 41 40 39 39 40 40 40 39 39 39 39 39 39 39 38 37 37 36 34 32 31
10 10 11 11 12 15 18 20 22 26 29 29 29 30 29 32 35 37 39 38 38 39 40 41 41 40 38 38 38 38 37 37 37 37 37 36 35 34 33 33 31 30 29 28
11 11 12 13 14 16 18 19 21 24 26 29 29 29 31 33 35 36 36 37 38 39 40 40 40 40 38 37 36 36 36 35 35 35 34 33 31 30 30 29 27 25 23 23
15 15 15 15 18 20 21 22 22 23 25 27 29 30 32 34 35 36 37 38 39 39 39 39 39 38 37 36 35 35 34 33 33 32 31 30 28 27 27 26 23 21 20 19
19 20 20 19 21 22 23 23 25 26 26 29 32 34 35 36 37 37 38 40 40 40 39 39 38 38 37 36 35 34 33 31 30 29 28 27 25 25 24 22 21 19 17 17
20 22 24 24 24 24 22 27 29 29 30 32 35 36 37 38 38 39 40 42 42 41 40 39 39 38 37 36 34 34 32 31 29 28 26 24 23 23 21 19 18 16 15 14
23 25 27 27 27 27 27 32 32 31 34 36 37 38 39 40 41 41 42 43 44 43 43 41 40 39 38 36 35 33 32 30 28 26 24 23 22 21 19 18 17 15 13 12
30 28 28 29 29 30 33 34 34 34 38 40 41 43 44 45 46 45 45 45 45 45 44 43 41 39 38 36 34 33 32 30 27 25 23 22 21 20 18 17 16 14 13 12
34 35 35 34 34 35 39 37 37 39 42 43 44 46 47 48 49 49 48 47 46 46 45 43 41 39 37 37 35 33 32 30 28 26 23 21 20 19 18 17 15 14 14 13
35 35 35 36 36 38 41 41 42 43 46 47 49 50 51 51 52 51 51 49 47 46 45 43 41 39 37 36 35 33 31 29 28 25 23 21 20 19 18 17 16 15 14 13
37 37 36 36 39 41 42 44 45 47 49 51 53 54 55 55 55 54 53 50 48 46 45 43 41 39 37 36 35 34 31 29 28 26 24 22 20 19 18 17 15 14 14 12
36 37 37 39 42 43 45 46 48 51 53 55 57 58 59 59 58 56 54 52 49 47 45 43 40 39 38 37 35 34 32 29 28 27 25 23 21 19 18 17 16 14 13 12
35 36 38 41 44 46 49 51 53 55 57 58 60 61 61 61 60 59 56 54 52 49 46 44 42 41 40 38 35 33 31 29 28 28 27 25 23 21 20 19 17 16 14 13
38 40 42 45 48 51 53 55 57 59 60 62 63 63 63 63 63 62 60 58 55 52 49 45 43 43 42 38 35 33 32 30 29 29 29 27 25 23 21 20 19 18 16 15
Wind_Direction
237 241 236 243 243 242 243 236 230 236 249 261 269 275 272 266 272 276 279 280 280 281 281 280 280 280 280 281 281 281 281 281 281 281 282 281 282 282 282 283 283 285 286 286
230 256 241 243 252 256 254 249 246 250 260 268 276 283 282 275 276 280 283 283 282 282 282 281 280 278 278 278 279 279 279 279 278 278 278 278 279 279 280 280 281 283 284 284
235 249 254 260 259 258 260 264 258 251 256 272 286 291 294 291 286 289 290 288 286 286 285 283 281 279 279 278 278 278 277 277 276 276 277 276 277 277 278 279 279 281 281 282
239 256 266 266 269 267 261 257 261 270 277 281 283 285 285 283 286 289 290 290 290 291 289 286 285 282 280 279 278 276 276 276 275 275 276 276 277 277 278 278 278 279 280 280
251 268 273 270 266 268 269 270 276 284 286 287 290 289 290 282 277 280 285 290 294 295 292 290 287 284 281 280 278 277 276 276 275 276 276 277 277 278 277 277 277 278 279 279
258 274 284 277 272 282 284 282 285 291 297 296 289 277 277 267 266 273 283 290 293 295 294 292 290 287 284 282 281 279 278 276 276 276 277 278 279 279 279 278 278 278 278 278
272 280 286 291 290 286 289 294 297 293 292 294 289 288 293 285 285 286 288 290 293 295 295 294 292 290 288 285 284 282 280 279 278 278 278 279 279 280 279 279 279 279 278 278
271 268 274 288 296 295 295 295 297 291 283 278 284 299 295 288 291 291 290 291 293 294 293 293 292 290 289 287 285 284 282 281 280 280 281 281 281 281 281 280 280 279 279 278
276 273 279 291 298 298 302 299 295 294 298 298 298 293 288 287 290 293 296 298 298 296 295 295 293 291 289 287 285 284 284 283 283 283 283 283 283 283 283 282 281 280 280 279
292 290 287 295 302 308 306 307 306 306 305 302 298 293 290 291 292 295 300 302 301 300 299 297 295 293 289 286 284 283 283 283 284 284 284 284 284 284 285 284 283 282 281 278
294 295 292 289 297 305 302 302 302 300 299 299 299 296 291 289 290 295 298 301 303 304 303 301 298 295 291 287 284 284 283 284 284 285 285 285 286 287 287 287 286 284 282 280
297 301 304 300 299 290 286 291 299 303 304 302 303 310 301 292 294 297 300 303 306 307 306 304 301 297 293 289 287 285 284 284 285 285 286 288 289 290 290 290 289 288 285 280
303 303 303 294 293 287 286 296 304 306 307 308 308 310 305 299 297 299 302 306 308 308 307 305 303 300 296 292 289 287 286 286 286 287 288 290 292 293 294 293 291 290 286 283
303 304 303 300 288 284 289 295 296 295 296 299 300 302 300 295 294 296 300 305 307 308 308 308 306 304 299 295 292 290 288 287 287 288 289 291 293 294 296 295 293 292 288 286
308 307 306 305 298 295 296 294 291 290 292 293 297 296 296 295 298 301 304 306 307 308 309 309 308 306 302 298 294 291 290 288 288 289 289 291 293 295 298 298 296 294 292 289
313 312 309 309 304 302 302 299 294 293 294 294 295 295 296 299 302 304 307 307 307 309 309 310 309 308 305 301 297 294 292 290 288 288 289 291 293 296 299 299 298 296 293 290
308 309 311 311 306 305 306 301 299 302 301 298 297 299 302 303 305 306 306 306 307 308 308 309 309 307 306 303 299 295 293 291 289 288 288 290 292 296 299 299 297 295 295 294
310 310 311 311 308 308 304 296 298 304 303 299 300 303 304 304 305 306 305 305 307 307 307 307 307 307 306 303 300 296 292 289 287 287 286 287 291 294 296 297 296 294 294 292
316 313 311 311 309 307 296 295 302 307 304 301 304 303 302 303 303 303 303 304 305 305 305 305 304 304 304 302 298 296 293 287 285 284 283 284 286 288 290 290 289 288 288 287
315 314 312 311 309 307 299 303 309 308 303 306 306 304 304 304 303 303 302 301 301 301 301 301 301 300 301 300 298 293 289 283 280 280 279 281 281 283 283 283 282 283 283 285
313 316 317 316 313 308 305 311 310 306 304 302 301 301 300 299 299 299 299 299 298 298 298 298 298 297 297 298 296 293 287 279 275 275 275 276 277 277 276 276 277 278 279 279
310 312 313 311 308 303 307 308 306 303 301 300 300 299 298 297 297 297 297 297 296 295 294 294 293 294 293 294 292 290 286 278 269 268 269 269 270 270 269 269 270 272 275 274
309 312 313 309 305 303 304 303 302 300 299 299 298 298 297 297 296 295 295 294 292 291 290 290 288 288 290 288 287 288 284 276 265 261 261 262 263 263 263 264 265 267 269 269
309 312 310 307 304 304 303 302 301 300 299 299 298 297 297 295 294 292 292 290 288 287 285 283 282 281 282 282 280 281 279 274 262 255 254 256 257 257 258 258 259 260 263 262
313 310 307 304 304 303 303 302 302 301 300 299 298 297 295 294 292 290 288 286 283 281 279 278 277 276 275 276 275 276 274 271 261 252 250 251 252 252 253 253 252 253 255 256
314 310 308 306 305 304 304 303 303 301 300 299 298 296 295 293 292 289 287 285 282 278 274 273 271 271 269 268 269 271 268 266 260 251 248 247 247 247 249 250 248 248 251 252
Height
5876 5880 5881 5885 5885 5886 5887 5891 5893 5895 5894 5889 5887 5889 5892 5891 5887 5885 5885 5884 5883 5882 5881 5881 5880 5879 5877 5876 5876 5876 5875 5873 5872 5871 5871 5869 5869 5868 5867 5866 5865 5864 5863 5862
5877 5877 5879 5879 5881 5883 5884 5886 5888 5889 5887 5884 5882 5882 5883 5882 5879 5877 5877 5876 5874 5873 5872 5872 5871 5870 5869 5867 5867 5867 5866 5864 5863 5862 5861 5860 5859 5859 5858 5857 5856 5855 5854 5852
5875 5875 5875 5878 5878 5879 5881 5882 5882 5882 5880 5879 5878 5877 5877 5876 5872 5870 5868 5867 5866 5865 5864 5863 5862 5861 5860 5859 5858 5857 5856 5855 5853 5852 5851 5850 5849 5849 5848 5847 5846 5845 5844 5842
5873 5873 5874 5875 5876 5876 5877 5876 5875 5875 5875 5875 5874 5872 5874 5872 5867 5863 5860 5858 5858 5857 5855 5854 5853 5852 5851 5849 5848 5847 5846 5845 5844 5842 5841 5840 5839 5838 5838 5837 5835 5834 5833 5832
5870 5870 5871 5872 5872 5871 5872 5871 5870 5870 5870 5869 5869 5868 5869 5868 5862 5856 5853 5851 5851 5850 5848 5846 5844 5843 5841 5840 5839 5838 5836 5835 5834 5832 5830 5829 5828 5827 5826 5825 5824 5823 5822 5821
5868 5868 5868 5868 5868 5867 5867 5867 5866 5866 5866 5866 5865 5863 5862 5859 5855 5853 5849 5847 5845 5843 5841 5839 5837 5835 5833 5831 5829 5828 5827 5825 5824 5822 5821 5819 5817 5816 5814 5813 5811 5810 5809 5809
5866 5866 5866 5865 5865 5865 5864 5864 5864 5864 5864 5862 5859 5857 5857 5853 5852 5850 5847 5843 5839 5836 5834 5832 5830 5827 5825 5823 5821 5819 5818 5816 5815 5813 5811 5809 5807 5805 5803 5801 5799 5798 5797 5796
5864 5865 5864 5863 5863 5861 5861 5861 5861 5860 5860 5859 5858 5857 5856 5849 5847 5845 5842 5838 5834 5831 5827 5825 5822 5820 5818 5815 5813 5811 5809 5808 5806 5804 5801 5799 5797 5794 5792 5790 5787 5785 5783 5782
5862 5862 5862 5861 5860 5859 5858 5857 5857 5856 5855 5854 5856 5855 5849 5844 5840 5837 5835 5832 5828 5824 5820 5817 5814 5812 5809 5807 5805 5803 5801 5799 5796 5794 5792 5789 5786 5783 5780 5777 5775 5772 5770 5768
5860 5859 5859 5858 5857 5857 5856 5855 5854 5852 5850 5849 5850 5850 5846 5838 5834 5831 5828 5825 5820 5816 5813 5809 5806 5803 5800 5798 5796 5794 5792 5789 5787 5784 5782 5779 5776 5773 5769 5765 5762 5759 5756 5753
5858 5857 5857 5856 5855 5854 5854 5852 5850 5849 5847 5845 5843 5845 5842 5835 5830 5826 5822 5818 5813 5809 5805 5801 5797 5794 5791 5788 5786 5784 5782 5779 5777 5774 5771 5768 5765 5762 5758 5754 5749 5746 5742 5739
5856 5855 5853 5853 5852 5851 5850 5848 5847 5845 5842 5840 5837 5839 5835 5829 5824 5820 5815 5810 5806 5801 5797 5792 5788 5785 5781 5778 5776 5774 5772 5769 5767 5764 5761 5758 5755 5751 5747 5742 5738 5734 5730 5727
5853 5853 5851 5851 5851 5848 5845 5844 5842 5840 5837 5834 5832 5833 5829 5823 5818 5813 5808 5803 5799 5794 5789 5784 5780 5776 5772 5769 5766 5764 5762 5760 5757 5754 5751 5748 5745 5741 5736 5732 5728 5724 5721 5718
5851 5850 5849 5848 5846 5844 5842 5841 5839 5836 5833 5830 5828 5825 5822 5817 5812 5807 5802 5797 5793 5787 5782 5776 5772 5768 5764 5761 5758 5755 5752 5750 5748 5745 5742 5739 5736 5732 5728 5724 5720 5716 5714 5711
5850 5848 5846 5845 5842 5840 5838 5837 5834 5832 5828 5824 5821 5818 5814 5808 5804 5799 5795 5790 5785 5780 5775 5769 5764 5760 5755 5752 5749 5746 5743 5741 5739 5736 5734 5731 5728 5724 5721 5717 5713 5710 5707 5705
5847 5845 5844 5842 5839 5836 5834 5831 5828 5826 5822 5818 5814 5810 5806 5801 5796 5792 5787 5782 5777 5772 5767 5762 5756 5752 5748 5744 5741 5738 5735 5732 5730 5728 5726 5723 5720 5717 5714 5711 5708 5705 5702 5700
5844 5842 5840 5838 5834 5831 5828 5825 5821 5819 5815 5810 5806 5803 5798 5793 5789 5785 5780 5774 5769 5764 5759 5754 5749 5744 5740 5736 5733 5730 5727 5725 5723 5721 5719 5717 5714 5711 5708 5705 5703 5701 5699 5697
5840 5837 5835 5832 5830 5826 5825 5818 5815 5812 5807 5802 5798 5794 5790 5785 5780 5776 5771 5764 5760 5756 5751 5746 5741 5736 5732 5728 5725 5722 5719 5717 5715 5713 5712 5710 5708 5706 5703 5701 5699 5697 5696 5695
5836 5833 5829 5826 5823 5820 5817 5810 5808 5806 5800 5794 5791 5786 5781 5776 5771 5767 5761 5755 5750 5746 5741 5737 5733 5728 5724 5720 5717 5714 5712 5710 5708 5706 5705 5704 5703 5701 5699 5697 5696 5694 5693 5692
5829 5827 5824 5820 5816 5812 5807 5803 5800 5797 5791 5785 5780 5774 5769 5764 5759 5756 5751 5746 5740 5736 5731 5727 5724 5720 5716 5712 5709 5706 5704 5702 5701 5700 5699 5698 5697 5696 5694 5693 5692 5691 5690 5689
5822 5818 5815 5811 5807 5803 5796 5795 5792 5788 5782 5776 5770 5765 5759 5753 5748 5743 5739 5734 5729 5725 5720 5717 5713 5710 5707 5703 5700 5698 5695 5694 5694 5693 5692 5692 5691 5690 5689 5689 5688 5687 5687 5686
5818 5814 5810 5805 5800 5796 5790 5786 5782 5777 5770 5764 5758 5752 5747 5741 5736 5731 5726 5721 5717 5713 5709 5705 5701 5699 5697 5694 5691 5689 5687 5686 5685 5686 5685 5685 5685 5685 5684 5684 5684 5683 5683 5683
5810 5807 5803 5798 5793 5786 5781 5776 5770 5764 5758 5751 5745 5738 5732 5726 5721 5716 5711 5707 5703 5699 5696 5693 5690 5688 5686 5683 5681 5680 5678 5677 5677 5678 5678 5679 5679 5679 5679 5679 5679 5679 5679 5679
5804 5799 5795 5788 5781 5776 5770 5765 5758 5751 5744 5737 5730 5723 5716 5710 5704 5699 5695 5691 5688 5685 5681 5679 5677 5675 5674 5671 5670 5669 5669 5668 5668 5669 5670 5671 5672 5673 5674 5674 5675 5675 5676 5676
5797 5792 5786 5779 5773 5766 5758 5752 5745 5737 5729 5721 5714 5706 5698 5692 5686 5681 5677 5674 5671 5668 5666 5664 5662 5661 5661 5659 5657 5657 5658 5659 5659 5660 5662 5664 5665 5666 5668 5668 5669 5670 5671 5672
5787 5781 5775 5768 5761 5753 5746 5738 5730 5721 5713 5704 5696 5688 5680 5672 5665 5660 5656 5653 5651 5649 5648 5647 5646 5646 5646 5646 5645 5646 5647 5649 5650 5651 5653 5656 5658 5659 5661 5662 5664 5665 5666 5668